Wind_Speed
12 12 14 16 16 16 17 17 18 18 16 18 18 18 17 19 20 21 20 18 17 17 16 16 16 16 16 16 15 15 14 13 13 13 13 13 12 13 13 13 12 12 12 11 11 10 10 10 10 10 10 10 10 10 10 11 11 11 12 12 11 11 11 10 10 10 10 11 12 13 13 14 14 15 15 15 15 15 14 14 14 14 14 14 14
14 14 14 16 16 15 17 18 19 18 16 17 18 18 18 18 18 19 19 17 17 16 16 16 16 16 15 15 14 13 13 12 12 12 12 13 13 13 13 13 13 12 12 11 11 10 10 10 10 10 10 10 10 11 11 11 12 12 12 12 12 11 10 10 10 10 10 10 11 13 13 13 14 14 14 14 14 13 14 13 13 14 15 15 14
16 15 15 16 18 16 17 19 20 19 18 18 19 19 19 20 19 19 18 17 17 16 16 16 16 16 15 14 13 13 13 12 12 12 12 13 13 13 13 13 13 13 12 11 10 9 10 11 11 10 10 11 11 12 12 12 12 12 12 11 11 11 10 10 10 9 10 10 12 13 13 13 12 13 12 12 11 11 12 14 14 15 16 15 15
17 16 16 17 18 17 18 19 19 19 18 19 19 18 17 18 17 17 17 17 16 16 17 17 16 15 15 14 13 13 13 13 12 12 12 12 13 13 13 13 13 13 12 11 9 9 11 11 11 12 12 13 13 14 13 13 13 12 12 11 10 10 9 9 8 8 8 10 13 13 12 12 12 12 12 12 11 10 11 13 14 16 18 17 17
18 17 17 17 17 16 17 17 17 17 17 17 17 16 16 15 15 16 16 16 16 16 16 16 15 15 15 14 13 12 13 13 12 12 12 12 12 13 13 13 13 13 12 10 9 11 11 12 12 13 14 15 14 14 14 13 13 11 11 11 10 9 9 9 8 8 8 10 13 12 11 11 11 12 12 13 13 13 12 11 15 18 19 19 18
19 18 17 17 17 16 16 16 16 16 16 16 16 16 16 15 15 15 15 15 15 15 15 14 14 15 14 13 13 12 12 12 12 12 11 11 11 12 13 13 13 13 12 10 10 13 13 13 14 14 14 15 14 13 14 13 12 11 11 10 10 10 9 9 8 8 10 11 12 11 11 10 10 11 12 14 14 15 13 10 14 17 18 18 18
19 18 18 18 18 17 17 17 17 16 16 16 17 16 16 15 15 15 14 13 14 14 14 14 14 14 13 12 13 12 11 12 11 11 11 11 11 12 12 12 13 13 12 11 11 13 14 14 14 14 14 13 13 13 13 13 12 11 11 10 10 10 9 9 8 10 11 10 10 10 11 10 9 11 13 14 13 15 15 12 12 14 16 16 17
19 18 18 18 18 19 18 17 17 17 16 16 17 16 15 14 14 14 13 13 14 15 14 14 14 13 12 12 12 11 11 12 11 10 10 10 10 11 12 11 12 13 13 13 12 12 13 14 14 14 13 13 13 13 13 13 12 11 11 10 10 10 10 10 9 10 12 10 8 9 11 10 10 11 13 14 13 14 16 15 11 11 14 15 17
18 18 18 19 19 20 19 18 18 17 17 17 17 16 15 14 13 13 13 14 14 14 14 13 14 13 12 11 11 11 11 11 10 10 10 9 10 11 11 11 12 13 13 13 12 12 13 13 13 13 13 14 14 13 13 13 12 11 10 10 10 10 10 10 10 10 11 10 7 9 11 12 10 11 13 13 14 14 16 16 9 9 13 15 17
19 18 19 19 20 20 18 18 18 17 17 17 17 15 14 13 13 13 13 15 15 13 13 13 13 12 11 11 11 11 12 11 11 10 9 9 10 10 11 11 11 12 13 14 13 13 13 13 13 13 13 14 14 14 13 12 12 12 10 9 9 10 10 10 12 12 11 10 7 8 11 12 10 11 12 12 14 14 16 14 8 9 13 15 17
19 18 19 19 20 19 18 18 18 18 17 17 17 15 13 13 13 13 13 14 14 13 13 12 13 13 11 12 12 12 12 11 11 10 10 10 10 10 11 11 11 12 12 13 13 13 13 14 13 12 13 13 13 13 13 12 11 11 10 10 10 10 11 11 13 12 12 12 9 10 10 11 11 10 12 13 14 16 16 13 9 11 14 15 16
19 18 19 20 20 19 18 18 18 17 17 17 17 16 14 13 13 14 13 13 13 13 13 13 13 14 13 13 12 11 11 11 11 11 11 10 10 10 11 11 11 12 12 13 13 13 14 14 13 12 12 11 13 13 13 12 11 11 9 9 10 10 11 11 12 12 13 13 10 10 11 11 11 10 12 12 13 16 16 11 9 12 14 15 15
19 19 19 20 19 19 18 17 17 16 16 17 17 16 14 14 13 14 13 13 13 14 14 14 13 14 13 12 11 11 11 11 11 11 11 11 10 9 10 11 12 12 12 13 12 12 13 13 12 12 11 12 13 13 14 13 12 11 9 9 9 10 11 11 10 11 13 12 10 11 12 11 11 11 11 12 13 15 13 11 11 12 14 15 15
19 19 20 20 19 19 18 17 16 16 16 17 17 16 15 14 14 14 13 13 14 14 14 14 13 13 13 12 12 11 11 11 10 11 11 11 10 10 10 11 12 12 12 13 13 11 11 11 12 12 12 13 13 14 14 13 13 11 9 9 9 10 10 10 10 11 12 13 11 11 11 11 11 11 12 13 13 12 12 12 12 13 14 14 14
19 20 20 20 20 19 18 17 16 16 16 16 16 15 15 15 14 14 13 13 14 14 13 13 13 13 12 12 12 12 11 11 10 10 11 12 11 11 11 11 11 12 12 13 13 12 10 10 12 14 13 13 13 13 13 13 13 12 10 10 9 9 9 8 9 10 11 13 12 12 11 10 11 11 12 12 11 11 12 13 13 13 14 14 14
19 20 19 20 20 18 18 17 16 16 16 15 15 15 15 14 14 13 13 13 13 13 13 12 12 13 12 12 12 12 11 10 10 10 11 12 12 12 12 12 11 12 12 12 12 12 10 10 13 14 13 13 12 11 12 13 13 12 10 10 9 9 10 8 8 9 10 11 11 12 12 10 11 11 11 11 10 11 12 13 13 13 13 13 13
19 19 19 19 19 18 17 16 17 16 16 15 15 14 14 14 14 13 13 13 12 13 13 13 13 13 13 12 12 12 12 11 12 12 12 13 13 13 12 12 12 12 12 12 12 11 9 10 13 14 13 12 12 11 11 12 12 11 9 10 10 10 11 9 8 9 10 11 10 11 12 11 11 10 10 11 10 11 12 12 12 12 13 12 12
18 18 18 19 18 17 17 17 16 16 16 15 14 14 14 15 14 13 13 13 13 13 14 14 14 14 13 13 13 12 13 13 13 14 14 14 14 14 13 12 13 12 12 12 12 12 10 11 13 14 13 12 11 10 10 10 11 10 9 9 9 10 12 9 8 9 9 10 10 11 12 12 11 10 11 11 11 11 11 11 11 11 11 11 11
18 18 18 18 17 17 18 17 16 15 15 15 15 14 14 15 14 14 13 13 13 13 14 14 13 13 13 13 13 13 14 15 15 15 15 15 14 14 14 13 13 13 13 12 12 12 12 11 12 13 12 11 10 10 10 11 10 10 9 9 10 10 10 9 8 9 9 10 11 12 13 13 12 11 11 10 10 10 10 10 10 9 9 9 9
17 18 17 17 16 17 17 16 15 14 14 14 15 15 14 15 14 14 14 13 13 13 13 13 13 13 13 13 13 12 13 14 15 14 14 15 14 14 14 14 13 13 13 12 12 12 12 12 12 13 12 11 11 11 11 11 10 10 10 10 10 9 8 7 8 8 9 11 12 12 13 12 11 11 11 10 10 10 10 9 8 7 7 7 8
17 17 16 16 16 16 16 15 15 14 13 14 14 15 15 15 14 15 15 14 14 13 13 13 13 13 13 13 12 11 10 11 12 12 13 13 13 13 14 13 13 12 12 12 12 12 12 12 12 12 12 12 13 13 12 11 10 10 10 11 10 7 6 7 7 8 9 11 12 12 12 12 11 11 10 10 10 9 9 9 7 7 6 6 7
18 17 16 16 16 16 16 15 15 14 14 13 14 15 15 15 15 14 14 14 14 14 13 12 12 12 11 10 10 9 9 10 9 10 10 11 12 13 12 12 12 12 12 12 12 11 11 11 11 12 12 13 13 11 10 11 11 10 11 11 8 6 7 6 7 8 9 11 11 11 11 11 10 10 10 10 9 9 9 9 8 7 5 5 5
18 17 16 16 16 16 16 15 15 14 14 13 13 14 14 14 14 14 14 14 14 13 12 11 11 11 10 9 9 9 9 9 9 10 10 11 12 12 11 12 12 12 12 12 12 11 11 11 12 12 12 13 11 8 8 9 9 10 9 8 6 6 6 6 6 7 8 10 10 9 10 10 9 9 9 9 9 9 9 9 8 7 6 5 5
19 18 17 17 16 16 16 15 15 14 13 12 13 14 13 13 13 13 13 13 13 12 11 11 10 10 9 9 9 9 9 9 10 10 9 9 10 10 10 10 10 11 11 11 11 12 11 11 11 10 10 10 9 8 8 8 7 7 6 6 6 6 6 6 6 6 7 9 9 8 9 9 8 8 8 8 8 8 8 9 9 8 7 6 5
19 18 17 17 17 16 16 15 15 14 13 12 12 13 12 12 12 13 13 13 12 11 11 10 10 10 9 8 9 9 8 8 8 7 7 7 7 8 8 8 8 9 9 8 8 9 9 8 9 9 8 8 8 8 8 7 7 6 6 6 6 5 5 6 6 5 6 7 7 6 7 7 7 7 7 7 8 8 8 8 9 8 7 6 5
18 18 17 17 17 17 17 16 15 14 12 12 11 12 12 11 12 12 12 12 11 11 10 10 9 9 8 9 9 8 8 7 6 6 6 6 7 7 7 7 7 7 7 7 8 7 8 8 8 8 8 8 8 8 7 6 6 6 6 6 5 5 5 5 5 5 5 6 4 4 6 6 6 6 6 6 7 7 7 8 8 8 7 7 6
19 18 18 17 17 17 17 16 16 15 13 11 11 12 12 11 12 11 11 11 11 10 10 9 9 8 8 8 8 7 7 7 6 6 6 6 6 6 6 6 6 6 6 7 8 7 7 8 7 7 7 7 7 7 6 6 6 6 6 5 5 5 5 5 5 5 5 5 3 3 4 4 5 5 5 5 6 6 6 7 7 7 7 7 6
19 19 18 18 18 18 17 17 16 15 14 12 11 12 11 11 12 11 10 10 10 9 9 8 8 7 7 6 6 6 6 7 6 6 5 6 6 6 6 5 6 6 6 6 7 7 7 7 6 6 6 6 6 6 6 6 6 5 5 5 5 5 5 5 5 5 4 5 3 2 3 3 3 4 3 4 4 4 5 5 6 6 6 6 6
19 19 18 18 18 18 18 17 17 16 14 13 12 11 11 11 11 11 10 9 9 8 8 8 7 6 6 6 5 5 6 6 6 5 5 5 5 5 5 5 6 5 5 5 5 5 5 5 5 5 5 5 5 5 5 5 5 6 6 4 4 4 5 5 5 5 4 4 3 2 2 2 2 3 2 2 3 3 3 4 4 4 5 5 5
19 20 18 18 19 19 18 17 17 16 14 13 12 11 11 11 11 10 9 8 8 7 7 7 6 6 5 5 4 4 5 6 6 5 5 5 4 4 5 5 5 5 4 5 5 4 4 4 4 4 4 4 4 4 4 5 5 6 6 5 4 4 5 4 4 5 4 4 4 2 2 2 1 2 2 1 1 2 2 2 2 3 3 3 3
20 20 19 18 19 19 19 18 17 16 14 14 12 11 11 11 11 10 9 8 7 7 7 6 6 6 5 5 4 4 4 5 5 5 4 4 4 4 4 4 4 4 4 5 4 4 4 3 3 3 3 3 3 3 3 3 3 5 6 5 4 3 4 4 4 4 5 4 4 3 1 1 1 1 1 1 1 1 1 1 1 1 1 1 2
21 21 19 18 19 20 19 18 17 16 15 14 13 12 11 11 10 10 9 8 7 7 7 7 6 6 6 6 4 4 4 4 4 4 4 4 4 4 4 3 4 4 4 4 4 4 3 3 3 2 2 2 1 2 2 2 2 4 5 5 5 3 3 4 4 4 5 4 4 4 2 1 0 0 1 1 1 1 1 1 0 1 1 1 1
21 22 20 19 20 20 19 18 18 17 16 14 13 12 12 11 10 10 9 8 8 7 7 7 6 6 6 6 5 5 4 4 4 4 4 3 3 3 3 3 3 3 3 4 4 3 3 3 4 3 2 1 1 1 1 1 2 3 4 5 5 3 2 3 4 4 4 5 4 3 3 2 1 0 0 2 2 1 2 1 1 2 3 1 2
21 21 21 20 20 19 18 18 18 18 17 15 14 13 13 12 11 11 10 9 8 8 8 7 7 6 6 6 6 5 4 3 3 3 3 3 3 3 3 3 3 3 3 3 3 3 2 2 3 3 3 1 1 1 0 0 1 2 3 4 4 4 2 3 4 4 4 4 4 3 3 3 2 1 0 1 2 2 2 2 2 3 3 2 3
21 22 22 21 20 19 18 18 19 18 17 16 14 14 13 12 12 11 11 10 9 8 8 8 8 7 7 7 6 5 5 4 4 3 3 3 3 3 3 3 3 3 3 3 2 3 3 2 2 3 3 2 1 1 1 1 1 1 3 2 3 4 3 3 4 4 4 4 4 4 3 2 2 1 0 0 1 2 2 3 3 4 3 3 3
23 22 22 22 21 20 19 18 19 19 18 16 15 14 13 12 11 11 11 11 9 9 9 8 8 8 7 7 7 6 5 5 4 3 3 2 2 3 3 3 2 2 3 3 3 3 3 3 2 3 3 3 1 1 0 1 2 1 1 2 3 3 2 3 4 3 4 4 4 4 3 2 2 1 1 1 1 2 2 2 4 4 4 3 4
24 23 23 23 22 21 20 19 20 20 18 17 15 14 14 12 11 10 10 10 10 9 9 8 8 8 8 7 7 7 6 5 5 4 3 2 2 2 2 3 3 2 3 2 2 3 2 3 3 3 3 2 1 1 1 1 2 2 1 2 3 3 2 3 4 3 4 4 4 4 4 3 2 1 1 1 2 2 2 2 3 4 4 4 4
24 24 24 23 22 21 21 19 19 20 18 17 16 15 14 12 11 10 10 10 10 9 9 8 8 8 8 7 7 7 6 5 5 4 3 2 2 2 2 3 3 2 2 2 2 2 2 2 4 3 2 1 1 1 1 1 2 2 1 2 3 2 3 3 4 3 4 4 4 4 4 3 3 2 0 1 1 2 2 2 2 3 4 4 4
24 24 24 23 22 20 20 19 18 19 18 17 17 15 14 13 12 11 10 10 10 9 9 9 8 8 8 8 8 8 7 6 5 5 4 3 3 3 3 3 3 2 2 2 2 2 2 2 3 4 2 1 1 2 1 0 2 2 1 2 2 3 4 3 4 3 3 4 4 4 4 4 3 3 2 1 0 1 1 1 1 2 4 4 4
25 24 24 24 22 20 20 19 18 19 19 17 17 16 15 14 13 12 11 11 11 10 9 9 9 8 8 8 8 8 7 6 6 5 5 3 3 3 3 3 3 2 2 1 1 1 2 2 3 3 2 2 1 1 1 1 2 2 1 1 2 3 4 3 3 4 3 4 4 3 3 4 4 3 3 2 1 1 0 1 1 2 3 4 4
26 25 25 25 24 22 21 20 20 19 19 19 19 18 16 15 14 14 13 12 12 11 10 10 9 9 8 8 9 9 8 7 7 6 6 5 4 3 4 4 4 3 2 1 1 1 2 2 2 2 2 1 1 1 1 1 1 3 3 3 3 2 3 3 3 4 4 4 4 3 3 3 3 3 3 2 1 1 0 0 1 1 2 3 3
27 27 27 27 25 24 22 21 20 20 20 19 19 18 17 16 15 15 14 13 12 12 11 11 10 9 9 10 10 9 8 8 8 8 7 6 5 4 4 5 4 3 3 2 1 1 1 1 1 1 2 2 0 0 2 2 2 3 3 3 4 3 3 3 3 4 4 3 3 2 2 2 3 3 2 2 1 0 1 0 1 1 2 2 2
28 28 29 28 26 25 23 21 21 21 20 19 19 19 18 16 15 14 14 12 11 12 11 10 10 10 10 11 11 10 9 8 8 8 8 7 6 5 5 5 5 4 4 3 3 2 2 1 1 1 1 2 2 1 3 3 2 2 2 2 3 3 3 4 4 4 4 3 2 2 2 1 2 2 1 1 1 1 1 1 1 1 2 2 2
28 28 28 28 26 26 25 23 22 21 20 20 19 19 17 16 15 13 13 11 9 10 11 10 10 10 10 11 12 12 10 9 9 9 9 8 7 6 5 5 5 5 4 3 3 3 2 2 2 1 2 1 3 2 2 2 2 1 1 1 2 2 2 4 5 5 5 4 3 2 2 1 1 2 1 1 1 1 1 2 2 2 2 2 2
28 28 28 28 26 26 27 25 23 22 21 21 21 19 17 17 15 12 12 11 9 9 11 12 12 12 12 12 12 12 12 10 10 10 9 9 8 7 6 5 5 5 4 4 3 3 2 2 2 2 2 1 1 1 1 1 3 2 1 0 1 1 1 2 3 3 3 4 3 3 2 2 3 2 2 2 2 2 2 2 3 3 3 3 3
28 27 28 27 26 26 27 26 24 23 22 22 23 21 19 18 18 16 15 14 13 13 15 15 14 14 13 13 12 12 12 12 11 10 10 9 9 8 7 6 5 5 5 4 3 3 3 3 2 2 2 1 1 1 1 1 3 3 3 2 1 1 1 1 1 1 2 3 3 4 4 3 3 3 3 4 4 4 3 3 3 3 3 3 3
27 27 27 27 27 26 27 27 25 24 22 22 24 23 20 20 20 20 18 17 16 17 17 16 14 13 13 13 12 12 13 13 12 11 11 10 9 9 8 7 6 5 5 5 5 5 4 3 3 2 2 2 1 2 1 1 2 3 4 3 2 2 1 1 2 0 2 2 2 4 4 4 4 4 4 4 5 4 4 4 4 3 4 3 4
27 27 27 27 28 27 27 28 25 24 23 23 24 24 22 21 21 21 19 18 18 17 15 14 13 12 13 13 13 12 13 13 13 11 11 11 10 9 8 7 6 6 6 6 6 6 4 3 3 3 2 2 3 3 2 1 2 3 4 4 3 2 2 2 2 2 2 1 2 3 3 2 3 3 3 4 4 4 4 5 5 4 4 4 4
27 27 27 27 27 27 27 27 26 25 24 24 25 25 24 22 22 21 20 19 18 16 13 13 13 13 13 13 13 12 12 13 14 12 12 12 11 10 9 8 7 6 6 6 7 7 6 5 5 4 4 4 4 3 3 3 3 3 4 4 4 3 4 4 3 3 3 2 1 2 2 2 3 2 2 3 3 3 4 5 5 6 6 5 5
27 27 26 26 27 27 27 28 27 25 24 25 26 26 25 23 22 22 21 19 18 16 14 13 14 14 13 13 14 13 13 13 14 14 13 13 12 11 10 9 9 8 7 6 6 7 7 7 7 6 5 5 4 4 5 5 4 4 4 5 5 4 4 4 5 5 4 3 3 4 4 3 2 1 1 2 3 3 4 4 5 6 6 6 6
27 27 27 27 27 27 27 28 27 25 24 26 26 26 26 24 23 23 23 22 19 18 16 14 14 14 14 15 14 15 15 14 13 14 14 14 13 12 11 10 9 9 8 7 7 7 8 8 8 7 7 7 6 5 6 6 5 5 5 6 6 5 5 4 4 4 4 4 4 5 4 3 3 2 1 2 4 4 5 5 7 7 6 7 7
Wind_Direction
133 129 127 123 118 124 126 123 121 121 120 118 120 123 123 123 122 121 123 126 128 128 126 122 116 113 111 111 110 110 110 110 109 108 107 104 102 100 99 97 96 93 92 94 97 100 102 106 108 110 112 111 111 109 106 108 110 111 110 107 104 104 105 105 104 103 103 102 102 105 109 111 110 109 111 114 115 114 108 103 101 101 99 98 98
136 132 128 125 120 123 127 125 122 122 123 121 121 125 124 123 123 123 126 129 130 128 123 118 115 115 114 115 113 113 112 112 112 110 111 110 107 104 101 97 94 90 90 91 95 102 107 108 107 113 116 112 114 111 107 105 106 108 109 107 106 108 107 107 107 104 105 104 102 105 107 108 109 110 112 114 116 114 107 105 103 101 100 99 99
132 129 127 125 119 119 122 121 121 124 127 126 126 130 130 128 128 127 129 131 129 126 122 119 120 121 122 122 121 121 118 116 116 113 112 111 109 105 101 96 92 90 89 89 95 102 104 105 105 112 114 110 109 107 108 107 104 103 104 103 104 109 108 107 108 105 105 105 102 98 97 100 100 99 99 99 101 101 101 106 105 103 102 101 101
130 129 128 123 115 114 116 117 119 122 125 124 124 125 124 124 127 128 129 129 130 129 128 128 129 130 128 124 122 122 119 116 115 114 112 109 108 104 102 99 93 91 89 91 95 95 99 103 104 109 110 105 103 103 104 103 100 98 99 97 97 103 103 103 104 104 105 103 97 90 89 93 93 94 96 94 88 83 86 100 104 103 103 102 101
131 131 128 122 117 116 114 115 117 118 119 118 119 119 121 123 127 128 128 132 136 135 133 135 135 135 133 124 118 116 114 113 113 112 111 111 109 106 104 101 97 93 92 92 90 92 98 100 102 106 106 104 102 100 97 94 95 94 93 92 91 96 98 101 103 107 108 99 93 93 94 95 101 105 107 106 101 93 83 90 100 100 101 101 100
133 132 129 125 123 122 118 118 118 119 121 121 121 122 125 127 130 131 135 142 140 134 133 135 136 139 138 127 121 119 115 113 111 111 110 111 110 107 106 102 99 98 96 90 86 92 97 99 100 101 101 102 100 97 95 94 94 92 90 88 88 92 95 96 99 100 93 88 90 99 102 100 105 106 103 103 104 101 93 89 96 98 100 101 100
135 134 131 128 127 127 125 124 123 124 126 126 127 127 130 133 140 143 146 145 135 132 133 135 137 137 134 128 126 125 119 114 113 113 110 109 108 107 106 102 100 100 97 90 90 97 98 99 100 99 101 102 103 101 99 95 91 91 89 87 87 88 89 89 95 94 83 79 87 98 103 102 101 99 96 99 100 101 102 96 93 97 99 101 101
136 136 133 130 130 133 131 129 128 128 129 128 129 130 135 143 148 145 142 137 132 133 133 133 133 129 128 125 123 121 116 113 114 113 109 107 108 107 106 104 101 99 96 92 94 101 101 101 101 101 103 101 102 101 100 95 89 88 87 87 85 83 84 85 91 89 81 79 92 99 101 101 96 96 98 104 105 101 101 95 91 96 98 100 100
138 136 134 130 133 136 134 132 130 130 131 130 129 131 138 146 144 136 133 131 127 130 129 125 123 122 124 123 121 120 116 114 113 111 110 109 108 108 107 106 102 98 96 93 92 97 99 99 97 96 98 98 97 97 97 94 92 90 87 87 84 83 83 83 88 84 82 88 106 106 99 98 96 100 103 106 106 102 98 93 96 99 99 102 100
137 136 134 130 135 138 135 135 133 132 132 131 130 132 138 141 134 128 126 123 119 120 122 119 119 119 120 121 119 115 112 112 111 109 110 108 106 107 106 105 104 100 96 95 94 92 94 95 93 91 92 97 99 98 96 92 92 92 88 86 84 87 84 82 87 86 91 98 106 102 96 99 100 108 110 104 102 102 95 94 110 108 103 103 100
137 135 133 132 137 137 134 134 133 133 132 133 131 131 135 134 126 123 120 115 113 113 117 120 119 118 118 115 111 108 109 111 110 108 108 106 106 107 106 107 106 102 97 97 98 93 92 93 92 93 92 97 103 103 101 94 90 90 87 86 84 87 86 80 85 90 96 97 98 100 99 101 102 109 107 102 105 102 96 98 114 110 104 101 99
138 135 133 134 137 135 132 131 132 131 130 131 129 130 133 130 123 120 114 108 111 108 110 116 115 113 112 109 109 111 111 111 108 106 106 104 105 107 108 110 107 102 100 100 102 96 94 96 95 99 99 100 101 101 100 96 90 87 83 83 80 82 84 77 82 90 94 97 100 102 99 100 103 105 101 102 106 102 101 110 114 106 103 100 99
138 135 133 134 137 135 133 131 131 129 128 129 128 130 129 125 119 116 113 112 112 108 107 110 111 108 109 109 111 111 110 109 106 107 106 104 104 106 108 108 106 103 102 102 103 99 95 94 93 98 103 103 100 98 97 96 93 88 80 78 79 81 83 80 85 89 93 99 95 96 99 102 104 106 106 105 103 102 109 119 111 103 101 99 97
138 137 135 136 138 136 134 133 132 131 131 128 127 127 125 123 119 118 118 116 113 111 110 109 109 109 111 112 111 109 108 106 105 108 106 105 107 106 107 108 106 105 105 104 105 102 95 87 86 91 98 102 102 99 98 97 94 90 81 76 81 83 80 79 85 89 94 98 93 91 94 101 107 105 106 106 108 114 120 116 105 100 98 97 95
139 139 138 137 137 138 136 134 133 132 130 127 126 124 123 122 120 123 120 115 112 111 111 111 112 112 112 112 111 109 105 106 106 109 109 109 110 110 111 111 107 106 107 105 106 106 99 87 87 91 95 98 97 97 96 95 94 91 83 76 81 88 87 80 84 88 90 94 98 101 99 104 111 107 109 115 120 121 115 108 101 97 95 95 93
141 140 139 138 138 139 138 137 136 133 131 128 127 126 125 124 122 124 119 115 114 113 113 114 115 112 112 112 111 107 103 104 102 104 107 108 108 109 111 112 109 108 109 106 108 108 103 95 91 92 95 97 95 93 90 88 88 86 82 79 80 87 89 83 83 87 88 92 95 101 106 110 110 110 113 116 115 111 107 102 100 98 95 93 93
143 143 140 140 140 140 140 140 139 136 135 132 130 129 128 126 125 124 121 119 117 117 116 115 114 113 113 112 110 105 101 100 99 98 100 103 105 105 107 107 106 108 110 107 104 103 97 89 85 84 85 87 85 80 78 80 83 86 88 86 85 88 87 80 80 82 85 89 87 91 101 105 103 102 103 103 102 103 102 100 98 97 95 94 93
146 145 143 142 143 143 141 140 142 140 137 136 133 131 131 130 127 125 122 120 119 119 118 116 115 114 112 111 110 105 100 99 99 98 97 99 100 101 102 101 103 107 110 108 105 102 94 83 80 82 82 82 83 83 86 88 87 92 97 93 91 89 85 80 80 80 79 83 83 85 91 94 91 88 88 91 93 95 97 97 97 96 97 98 99
148 147 146 145 146 146 142 142 144 143 141 139 136 135 134 132 129 126 124 123 121 119 118 118 117 115 112 111 111 108 101 98 98 97 97 96 94 96 99 97 100 105 108 108 108 110 107 99 96 99 100 100 103 105 103 96 92 93 95 97 94 83 78 80 80 81 81 81 83 84 84 85 84 84 83 83 85 87 90 93 96 99 102 105 106
151 150 150 149 148 147 145 144 145 148 145 139 137 137 136 133 131 129 128 126 122 121 121 121 120 117 116 115 112 108 102 98 97 98 98 95 94 94 95 96 97 101 105 106 107 110 113 113 113 112 111 110 107 103 99 94 93 89 88 91 86 76 75 81 80 80 81 81 82 83 82 81 80 82 82 80 82 83 86 89 95 102 109 108 103
154 155 154 152 151 150 148 146 148 149 144 139 138 137 137 136 134 132 132 130 127 127 126 125 125 120 118 115 110 108 105 102 100 100 98 95 96 93 93 95 96 98 100 102 104 107 111 113 113 109 104 101 96 91 89 89 88 83 80 79 74 72 77 76 75 78 79 81 83 82 81 79 78 79 78 78 78 79 82 86 94 102 109 105 99
157 158 158 157 154 153 152 150 150 148 144 141 139 139 140 139 137 135 134 134 133 132 131 131 129 124 120 115 112 112 109 105 103 101 99 98 98 96 96 98 96 96 96 97 99 102 105 105 103 100 98 92 89 85 78 77 74 68 67 67 67 72 74 70 73 76 76 82 86 86 84 81 79 79 78 77 75 76 77 80 88 97 102 99 97
159 160 160 161 158 157 155 152 151 148 146 143 142 142 142 143 141 139 138 138 139 136 138 137 132 129 125 120 116 114 110 107 108 106 105 105 101 100 100 97 96 96 95 94 94 97 98 95 95 93 89 87 90 89 78 73 63 56 59 64 72 74 71 69 71 73 75 83 90 91 88 84 82 80 78 76 73 73 73 74 77 84 88 88 94
162 161 160 162 161 160 157 154 153 151 150 146 145 145 146 148 146 145 144 143 143 141 140 137 134 134 129 124 119 115 113 111 111 106 104 105 102 101 97 92 94 95 93 91 90 91 92 91 90 86 80 84 93 92 85 82 72 65 67 73 74 74 73 70 68 73 77 84 91 94 91 87 83 80 76 73 71 71 72 72 72 74 76 79 88
163 161 160 164 164 163 159 156 155 156 156 151 149 148 150 151 150 150 148 147 145 143 141 139 137 137 132 128 124 119 117 116 114 108 106 106 104 103 98 95 96 92 91 94 92 89 95 96 91 91 90 90 93 92 89 87 84 79 74 74 73 73 74 71 71 74 79 87 93 99 99 94 89 83 76 73 71 71 71 74 74 72 71 75 82
164 164 163 165 166 166 163 159 158 161 161 156 152 151 154 154 154 153 151 149 146 145 144 142 141 138 135 132 130 125 122 120 116 112 110 106 102 102 101 98 96 92 91 95 93 90 98 100 95 96 95 92 89 88 89 86 86 84 79 77 73 70 71 74 74 73 82 90 91 102 106 103 101 93 84 78 73 72 70 71 74 71 72 75 78
167 166 164 165 168 169 166 163 162 164 165 161 156 156 160 158 156 155 153 151 147 148 146 144 144 138 134 136 136 131 126 122 117 115 111 107 103 101 98 96 93 91 88 90 92 89 92 92 91 91 89 91 89 85 85 83 83 83 82 80 76 71 69 72 73 73 84 93 91 97 108 111 107 99 91 88 79 76 75 71 72 71 71 74 76
168 167 165 167 170 171 169 167 165 166 168 165 161 163 165 160 159 160 156 154 151 150 147 145 144 141 138 138 134 130 127 122 120 117 110 107 102 97 94 92 90 87 84 86 88 88 89 89 88 87 86 87 86 84 82 82 81 80 80 80 81 76 72 72 73 76 82 95 96 78 96 108 98 93 89 91 88 79 78 74 71 70 69 73 77
170 167 167 169 171 172 171 170 168 168 170 169 168 168 168 164 162 164 160 158 156 151 150 148 147 148 144 138 129 124 124 121 118 111 105 102 98 97 91 87 86 86 88 89 88 87 86 84 85 85 84 82 82 81 78 80 82 81 76 76 87 86 82 79 75 80 79 93 104 59 66 98 89 92 86 86 92 83 77 74 70 72 67 68 72
172 170 170 170 171 173 173 173 171 170 173 173 172 172 171 168 165 167 165 163 161 155 155 155 153 153 149 147 131 116 115 115 114 107 103 100 98 97 92 92 91 91 94 96 95 92 89 81 76 79 77 76 78 77 72 73 77 79 75 73 90 95 92 87 81 85 84 91 108 80 45 89 99 91 97 107 112 94 73 72 68 77 81 76 73
174 173 173 171 171 174 174 175 174 173 176 177 177 176 174 171 169 169 168 167 167 162 162 164 160 154 154 156 136 118 109 108 111 108 108 104 103 101 94 97 95 97 99 102 107 98 95 86 67 65 63 61 70 73 67 67 68 73 75 72 77 90 94 94 91 90 89 90 106 111 74 80 116 112 140 186 186 156 93 82 55 49 136 122 118
176 177 175 173 173 174 174 175 175 176 179 180 179 178 176 174 173 172 170 171 172 169 170 169 165 158 157 159 148 138 120 110 112 109 114 113 110 109 104 103 99 107 109 108 116 107 106 110 87 62 44 32 43 69 65 66 64 61 72 70 65 75 92 96 96 90 90 90 101 122 123 88 95 150 209 236 235 210 197 179 206 285 280 216 197
178 179 177 174 175 175 174 174 176 178 182 182 180 179 177 176 177 176 172 174 177 178 175 173 169 164 165 166 162 157 138 122 120 117 126 125 116 112 112 118 114 117 119 120 126 126 129 122 113 101 72 36 17 56 62 88 75 60 64 63 59 62 86 97 93 88 90 94 96 115 134 149 176 161 312 261 253 222 222 222 221 262 278 256 236
178 179 179 177 177 175 174 176 177 179 182 183 181 181 179 178 179 179 176 178 182 182 178 176 172 169 173 175 173 167 156 143 136 132 137 135 130 128 123 123 128 127 126 132 132 130 127 97 100 103 91 86 70 19 290 171 112 71 61 52 57 60 82 98 87 85 82 86 92 101 126 148 169 179 17 279 260 250 253 256 244 252 265 260 246
180 179 180 178 177 176 175 177 178 179 182 183 182 182 181 180 180 179 179 181 184 184 182 179 176 176 175 177 182 177 171 166 159 152 149 154 145 138 137 126 132 139 129 135 131 117 113 87 70 77 72 60 49 318 259 199 200 95 68 53 60 64 88 98 80 82 81 81 90 95 112 127 148 179 126 215 260 265 267 260 254 256 253 254 251
182 180 180 178 177 177 177 178 178 180 181 183 182 182 183 181 180 178 179 182 183 184 182 179 178 180 177 178 184 183 182 181 178 174 163 170 157 139 146 136 140 145 126 135 135 116 114 105 77 65 69 54 16 320 252 194 202 164 100 80 67 66 94 100 86 84 78 77 86 92 102 109 127 171 172 198 239 248 267 250 248 262 258 247 248
184 181 179 178 179 178 180 181 179 180 181 182 182 181 183 182 182 179 180 183 184 185 184 184 181 181 182 180 182 185 189 191 191 191 180 175 168 154 151 147 155 147 129 141 133 118 120 112 99 78 77 77 347 345 29 175 187 184 130 84 55 65 102 102 97 94 84 83 89 95 99 105 115 133 192 208 217 227 274 283 240 254 258 244 244
185 183 180 179 180 178 181 182 181 181 181 181 182 182 183 183 185 184 184 188 191 191 189 190 189 186 186 184 183 186 190 197 201 201 194 183 176 170 152 149 160 150 141 151 127 113 107 100 104 95 76 67 357 1 25 132 176 180 113 64 45 83 116 115 109 106 104 103 98 100 99 98 101 95 147 226 208 217 277 312 262 243 249 242 240
187 184 181 179 180 179 180 181 181 182 181 181 183 183 184 186 189 189 191 195 198 198 195 194 196 193 190 188 189 189 191 199 204 207 202 188 177 171 162 162 166 162 160 155 131 124 117 85 90 91 74 54 9 346 350 115 179 180 132 65 57 105 124 127 122 122 123 114 108 115 111 102 98 92 91 114 164 204 247 272 265 230 243 259 255
189 184 181 180 181 180 179 181 182 181 180 180 182 185 187 189 193 195 197 200 201 202 202 199 199 198 193 191 192 194 197 201 205 208 205 194 182 167 167 175 175 175 180 169 143 122 124 110 92 89 82 66 23 330 277 218 175 176 179 130 95 123 139 138 138 148 147 131 126 128 118 108 100 93 91 97 116 114 175 235 251 228 243 270 271
189 185 183 183 183 181 179 182 183 182 181 182 185 187 190 191 194 197 199 200 200 202 204 205 205 202 197 194 195 198 203 207 210 211 205 200 190 175 175 180 185 187 188 194 165 102 119 124 126 123 122 99 22 345 222 229 182 177 184 163 138 141 153 153 164 174 169 154 147 140 124 116 107 101 105 97 89 101 112 236 255 251 246 258 271
189 188 187 186 184 183 183 184 184 186 187 186 186 189 192 193 194 197 199 197 198 201 204 206 208 204 201 201 199 201 207 211 214 214 208 204 196 189 186 186 191 192 194 211 204 176 166 158 177 160 153 169 125 27 186 210 205 171 166 161 158 165 174 189 199 197 189 170 159 153 141 133 122 113 110 104 92 143 156 169 218 256 261 260 271
190 189 190 188 186 186 187 187 188 189 191 190 189 190 192 193 194 197 199 197 198 202 204 205 208 209 206 204 205 207 211 213 215 214 209 207 203 199 196 195 197 194 200 208 200 203 197 187 210 213 212 183 134 142 195 204 229 164 157 167 170 174 181 204 214 212 206 185 184 193 163 156 145 128 124 149 159 172 179 210 223 248 259 264 266
191 190 189 188 188 189 189 189 190 190 192 192 191 191 189 190 193 194 197 198 194 194 199 203 207 212 210 207 208 210 212 213 213 212 212 211 209 208 206 203 203 203 209 206 199 208 207 215 218 204 252 196 126 169 206 205 230 193 167 171 191 219 191 189 193 197 214 202 203 225 181 190 200 159 223 233 188 203 225 230 240 251 252 252 256
192 191 190 190 189 190 189 189 191 191 193 193 191 188 184 184 185 184 187 191 189 187 197 206 210 213 215 212 210 210 211 210 211 213 215 216 216 216 214 211 211 212 215 218 213 216 218 227 220 198 239 265 157 194 160 182 220 221 252 190 192 234 111 148 174 175 219 219 205 223 212 225 230 210 247 258 245 249 248 238 243 254 251 251 253
193 192 191 191 191 191 189 190 192 192 193 193 192 188 184 183 183 183 187 190 195 201 207 212 212 213 216 215 211 210 210 209 211 214 216 219 220 220 218 216 217 214 217 224 225 224 227 227 226 221 226 240 260 285 13 174 205 210 227 229 231 284 18 4 262 164 217 239 223 216 214 230 239 229 243 255 250 246 245 238 241 249 247 246 251
194 192 192 192 192 190 189 189 190 191 192 192 192 189 187 188 190 193 197 198 203 210 214 216 214 212 213 212 211 210 209 209 211 214 217 220 221 222 221 219 218 215 216 221 225 227 227 219 222 232 228 208 215 258 274 203 185 206 221 221 219 247 312 311 291 259 203 228 256 247 222 216 235 240 238 245 240 231 235 241 241 242 242 244 246
193 192 192 193 192 189 187 188 189 191 193 191 191 191 190 192 195 199 203 206 210 213 213 213 212 210 208 208 208 208 209 210 212 215 217 219 222 223 222 219 218 217 215 218 225 227 222 213 213 218 223 217 211 226 250 238 210 212 213 223 224 224 250 255 267 301 285 243 240 251 240 220 249 258 255 264 252 232 229 239 246 245 243 242 240
193 192 191 191 190 188 186 187 190 191 191 190 190 193 194 194 197 200 203 208 212 212 209 206 205 203 203 203 204 207 210 211 214 216 218 220 222 223 223 222 221 218 218 219 224 224 221 215 211 213 218 223 224 226 234 238 238 224 204 216 227 221 229 236 229 238 261 277 265 245 242 232 240 248 267 286 277 251 238 234 240 244 243 242 239
193 191 189 189 188 187 187 188 190 191 190 190 190 193 195 195 198 201 202 205 206 206 206 201 197 197 200 203 205 210 213 214 216 217 219 220 221 223 224 225 223 221 220 220 221 221 222 221 219 220 218 219 225 227 232 238 242 242 223 216 221 222 223 230 235 235 236 250 265 266 253 237 243 222 226 301 305 280 261 246 242 244 241 239 238
191 189 189 189 187 186 187 188 190 190 190 190 191 194 195 197 200 202 203 203 201 199 200 198 195 195 200 205 210 214 216 218 218 218 220 220 220 222 223 225 225 223 221 221 221 220 220 222 223 223 219 218 223 227 236 241 239 239 236 227 225 226 223 223 237 249 252 250 261 281 292 315 323 311 297 306 301 279 262 251 248 246 240 238 236
Height
823 824 826 826 828 828 829 829 831 831 831 832 833 834 834 834 834 835 838 840 841 841 841 842 843 844 845 845 846 846 847 847 848 848 849 849 850 851 851 851 852 852 852 852 852 852 852 852 852 852 852 852 852 852 852 852 852 852 852 853 853 853 852 852 852 852 852 852 852 852 852 852 852 852 852 853 853 853 854 854 854 855 855 856 857
823 825 826 827 829 830 831 831 833 833 833 834 835 836 836 836 837 838 840 842 842 842 843 844 845 845 846 846 847 847 848 848 849 849 850 850 851 852 852 853 853 853 853 853 853 852 852 852 853 852 852 853 853 853 853 854 854 854 854 854 854 853 853 853 853 853 853 853 853 853 853 853 853 853 854 854 854 855 855 855 856 856 856 857 857
823 826 827 828 829 831 832 832 834 835 836 836 838 839 839 839 840 841 841 842 842 843 844 845 846 846 847 847 848 848 849 849 850 851 851 851 852 852 853 854 854 854 854 854 853 852 853 853 853 853 853 853 854 854 854 854 855 855 855 855 855 854 854 854 854 854 854 854 854 855 856 855 855 856 857 858 858 858 857 857 857 856 856 857 858
824 826 828 829 830 831 833 833 835 836 837 838 839 839 839 840 840 841 842 843 843 844 845 846 847 847 848 848 849 849 850 850 851 852 852 852 853 853 854 855 855 855 855 854 853 853 854 854 854 854 854 855 855 856 855 855 856 856 856 856 856 855 855 855 855 855 855 855 856 858 858 858 858 859 860 860 861 862 861 860 859 858 858 859 859
825 827 828 829 830 832 833 834 835 836 837 837 838 839 840 840 841 842 843 843 844 845 846 847 847 848 849 849 850 851 851 852 852 853 853 853 853 854 855 855 856 856 855 855 854 855 855 854 855 855 855 856 856 857 857 857 857 857 857 857 857 856 856 855 856 855 856 856 857 859 859 858 859 860 860 861 862 863 865 865 862 860 860 860 861
826 827 829 830 832 832 833 834 835 836 837 838 838 839 841 841 841 843 843 844 845 847 847 848 848 849 850 850 851 851 852 853 853 854 854 854 854 855 855 856 857 857 856 855 855 855 856 856 856 856 857 857 858 858 858 858 858 858 858 858 858 857 857 856 856 856 857 857 859 860 859 859 860 861 862 862 863 863 866 869 867 864 862 862 862
827 829 831 832 834 834 835 835 836 837 838 839 839 841 841 842 842 843 844 845 847 848 848 849 849 850 851 851 851 852 853 853 854 854 855 855 855 856 856 857 858 858 857 857 856 856 857 857 858 858 858 859 859 859 859 859 859 859 859 859 859 859 858 857 857 858 858 859 860 860 860 861 862 863 863 863 864 865 866 870 871 867 865 864 863
828 830 832 834 835 836 837 837 838 839 840 841 841 842 843 843 843 844 845 847 848 849 849 850 850 851 852 852 852 853 854 854 855 855 855 856 856 857 857 858 859 859 858 858 858 857 858 858 859 859 859 860 860 860 860 860 861 861 861 860 860 860 859 858 859 859 860 861 861 861 863 863 864 863 864 865 867 868 867 869 872 871 867 866 865
829 831 833 835 836 837 838 839 840 840 842 842 843 844 843 843 844 846 846 848 849 849 850 851 851 852 852 853 853 854 854 855 856 856 856 857 857 857 858 859 859 859 860 860 859 858 858 859 859 859 860 860 861 861 861 861 862 862 862 862 861 861 860 860 860 860 862 862 860 861 864 865 866 866 867 869 870 871 869 869 874 873 869 868 867
830 832 834 835 837 838 839 840 841 842 843 843 844 844 844 844 845 847 847 848 849 850 851 852 852 853 853 854 854 854 855 856 857 857 857 857 858 858 859 860 860 860 861 861 860 860 860 860 860 860 861 861 862 861 862 862 863 863 863 863 862 862 862 861 861 862 864 863 862 863 865 866 868 868 868 870 870 871 869 870 875 875 871 869 868
831 833 835 836 838 838 840 841 842 843 844 844 845 845 845 846 847 848 848 849 850 851 851 852 853 853 854 854 855 855 856 857 858 858 858 859 859 859 860 861 861 861 862 862 861 861 861 862 862 862 862 863 863 862 863 864 864 864 864 864 863 863 863 863 863 864 865 865 865 865 866 868 868 869 869 870 871 870 869 873 876 875 872 870 870
832 834 835 837 838 840 841 842 843 844 845 846 846 846 846 847 848 848 849 850 851 852 852 853 853 854 855 855 856 856 857 858 859 859 859 860 860 860 861 861 862 862 862 862 862 863 863 863 864 864 864 864 864 864 864 864 864 865 865 865 864 864 863 863 864 865 866 867 867 866 867 869 869 870 871 872 872 870 871 876 877 875 873 872 871
832 834 836 838 839 841 842 843 844 845 846 847 847 848 848 848 849 849 849 851 852 852 853 853 854 855 856 856 857 857 858 858 859 860 860 861 861 861 862 862 862 863 863 863 863 864 864 865 865 865 866 866 865 865 865 865 865 865 866 866 865 864 864 864 865 866 868 869 868 868 869 870 870 871 872 873 872 872 875 878 877 875 874 873 873
833 835 837 838 840 841 842 844 845 846 847 847 848 849 849 849 850 850 851 852 853 853 853 854 855 856 856 857 857 858 858 859 860 860 862 862 862 862 862 863 863 863 864 864 864 864 865 865 866 866 867 867 866 866 865 865 865 866 867 866 866 865 865 865 866 867 868 870 870 870 871 871 872 872 872 872 873 875 878 878 876 875 874 873 874
833 835 837 839 840 842 843 845 845 847 848 848 849 850 850 851 851 852 853 853 853 854 854 855 856 857 857 858 858 859 859 860 861 862 863 864 864 863 863 863 864 864 865 865 866 866 866 866 867 867 867 867 867 867 866 867 867 867 867 867 867 866 867 867 867 868 869 871 873 872 872 873 873 874 874 875 876 877 877 876 876 875 874 874 874
834 836 838 839 841 842 844 845 846 848 848 850 850 851 852 852 853 853 853 854 854 855 855 856 857 857 858 859 859 860 861 861 862 862 863 864 864 864 864 864 864 865 866 866 867 867 867 867 868 868 868 868 868 868 867 867 867 867 868 868 868 868 867 868 868 868 870 872 873 874 875 875 875 876 876 877 877 876 876 875 875 875 875 875 875
834 837 838 840 841 843 844 846 846 848 849 850 851 852 853 853 854 854 854 855 855 856 856 858 858 858 859 860 861 861 862 862 862 862 863 864 864 865 865 865 865 866 867 867 867 867 866 866 866 866 867 867 867 867 867 866 867 868 869 869 869 869 868 868 869 869 870 871 872 873 874 875 875 875 876 876 875 875 875 875 875 875 875 876 876
835 837 838 840 841 843 845 846 847 848 850 851 852 853 853 854 855 855 856 856 856 857 858 859 859 860 861 861 862 862 862 862 863 863 863 864 865 865 866 866 866 867 868 869 869 869 867 866 866 866 867 868 869 869 869 869 869 870 871 871 870 870 869 869 870 870 870 871 872 873 873 874 874 874 875 875 875 875 875 875 876 876 876 876 877
836 837 839 840 841 844 844 846 848 849 850 851 852 853 854 855 856 856 857 857 858 858 859 860 860 861 861 862 863 863 863 863 863 864 864 865 865 866 866 867 868 868 869 870 871 872 871 870 870 871 873 874 874 873 873 872 872 872 872 872 871 870 870 871 871 871 871 872 873 873 873 874 874 875 875 875 875 875 876 876 876 876 877 877 878
836 838 839 841 841 844 845 846 848 849 851 851 853 853 855 856 857 858 858 859 859 859 860 860 861 862 862 863 863 864 864 864 864 865 865 866 866 867 867 868 869 869 870 871 873 873 873 874 874 875 876 876 876 875 874 873 873 873 872 872 871 871 871 872 872 872 872 873 873 874 874 875 875 875 875 876 876 876 876 877 877 877 878 878 879
837 838 839 841 842 844 845 846 848 850 851 852 853 854 855 856 857 858 859 860 860 861 861 862 862 862 863 864 865 865 865 866 866 866 866 867 867 867 868 869 870 870 871 872 873 873 873 874 874 875 875 875 875 874 874 874 873 873 872 871 871 872 873 873 873 873 873 874 875 875 875 876 876 876 877 877 877 877 877 878 878 878 879 879 880
836 838 840 841 842 844 845 847 848 850 851 852 854 855 856 857 858 859 860 861 861 862 862 863 863 863 865 865 866 867 867 867 867 868 868 868 868 868 869 870 870 871 871 872 872 872 873 873 873 874 874 874 873 874 873 873 873 873 872 872 872 873 873 874 874 874 874 875 876 876 877 877 877 878 878 878 878 878 879 879 879 879 880 880 881
834 837 839 841 842 844 845 847 848 850 851 853 854 855 856 857 858 859 860 861 862 863 863 864 864 864 865 866 867 867 868 868 868 868 868 869 869 869 870 870 871 871 871 871 872 872 872 873 873 873 873 873 873 874 873 873 873 873 873 873 874 874 874 874 875 875 876 876 876 877 878 878 878 879 879 879 879 879 880 880 880 880 881 881 882
833 836 838 841 842 843 845 847 848 850 851 853 854 855 856 857 858 859 860 861 862 863 864 864 865 865 866 867 868 868 869 868 869 869 869 870 870 870 871 871 871 871 872 872 872 872 873 873 873 873 873 873 874 874 874 874 874 874 874 874 875 875 875 875 876 876 876 877 877 878 878 879 879 880 880 880 880 880 881 881 881 881 882 882 883
833 835 838 840 842 843 845 847 848 850 851 853 854 855 856 857 858 859 860 861 862 863 864 865 865 866 866 867 868 868 869 869 870 870 871 871 871 871 872 872 873 872 873 873 873 873 873 874 874 874 874 874 875 875 875 875 875 875 875 875 876 876 876 876 877 877 877 878 878 879 879 880 880 880 881 881 881 882 882 882 882 882 883 883 884
833 835 837 839 841 843 845 847 849 850 852 853 854 855 856 857 858 859 860 861 862 863 864 865 865 866 867 868 868 869 869 870 870 871 871 872 872 872 872 873 873 873 874 874 874 874 874 875 875 875 875 875 875 875 876 876 876 876 876 876 876 876 876 877 877 878 878 879 879 879 880 880 881 881 882 882 882 883 883 883 883 884 884 884 885
832 834 836 839 841 843 845 847 849 850 852 853 854 855 856 857 858 859 860 861 862 863 864 865 866 866 867 868 868 869 869 870 871 871 872 872 872 873 873 873 873 874 874 874 875 875 875 875 876 876 876 876 876 876 876 877 877 877 877 877 877 877 877 877 878 878 879 879 879 880 880 881 881 882 882 883 883 883 884 884 884 885 885 885 886
831 833 836 838 840 842 845 846 848 850 852 853 854 855 856 857 858 859 860 861 862 863 864 865 866 866 867 868 868 869 869 870 871 871 872 872 873 873 874 874 874 875 874 875 875 875 876 876 876 877 877 877 877 877 877 877 877 877 877 877 878 878 878 878 878 879 879 880 880 880 881 881 882 883 883 883 884 884 885 885 885 886 886 886 886
830 833 835 837 840 842 844 846 848 850 851 852 854 855 856 857 858 859 860 861 862 863 864 864 866 866 867 867 868 869 869 870 871 871 872 872 873 874 874 874 875 875 875 876 876 876 877 877 877 877 877 878 877 878 878 878 878 878 878 878 878 878 879 879 879 879 879 880 881 881 881 882 882 883 883 884 884 885 885 886 886 886 887 887 887
829 832 834 836 839 841 843 846 847 849 851 852 853 854 855 857 858 859 860 861 862 863 864 865 866 866 867 867 868 869 869 870 871 872 873 873 874 874 874 875 876 876 876 876 877 877 877 877 878 878 878 878 878 878 878 879 878 878 878 878 879 879 879 880 880 880 880 881 881 881 881 882 883 883 883 884 884 885 886 886 886 887 887 887 887
829 831 833 835 838 841 843 845 847 849 850 852 853 854 855 857 858 859 860 861 862 863 864 865 866 866 867 867 868 869 870 870 871 872 873 874 874 875 875 875 876 876 877 877 877 878 878 878 878 878 878 878 879 879 879 879 878 878 878 879 879 879 880 880 880 880 881 881 881 882 882 882 883 883 883 884 884 885 885 886 886 887 887 887 887
827 830 832 835 837 840 842 844 846 848 850 851 852 854 855 856 858 859 860 861 862 863 864 865 866 867 867 868 869 869 870 871 872 873 873 874 874 875 876 876 876 877 877 877 878 878 878 878 878 878 879 879 879 879 879 879 879 879 879 879 879 880 880 880 881 881 881 881 882 882 882 882 882 883 883 884 884 885 885 886 886 886 887 887 887
826 829 831 833 836 839 841 843 846 847 849 851 852 853 855 856 858 859 860 861 862 863 864 865 866 867 868 868 869 870 871 872 872 873 874 874 875 875 876 876 877 877 878 878 878 878 878 877 878 878 878 878 879 879 880 879 879 879 879 879 879 880 880 881 881 881 881 882 882 883 883 883 882 883 883 884 884 885 885 885 886 886 886 887 887
824 827 830 832 835 837 840 842 845 847 848 850 852 853 855 856 857 858 860 861 862 863 864 865 866 867 868 869 870 870 871 872 873 874 874 875 875 876 876 876 877 877 878 878 878 878 877 877 877 878 878 878 878 879 880 879 880 879 880 880 879 880 880 881 881 881 882 882 882 883 883 883 883 883 883 884 884 884 885 885 886 886 886 886 886
823 826 829 831 834 836 838 841 843 846 847 849 851 853 854 856 857 858 859 861 862 863 864 865 866 867 868 869 870 871 872 872 873 874 874 875 875 876 876 877 877 878 878 878 878 878 878 878 877 878 878 878 878 879 879 880 880 880 880 880 880 880 881 881 881 881 882 882 882 883 883 883 883 883 883 883 884 884 885 885 885 886 885 886 886
822 825 827 830 833 834 837 839 841 844 846 848 850 852 854 855 857 858 859 860 861 863 864 864 866 867 868 869 870 871 872 872 873 874 875 875 875 876 876 877 878 878 878 878 878 878 878 878 878 878 878 879 879 878 879 880 880 879 880 880 880 880 881 881 882 882 882 882 882 883 883 883 883 884 883 884 884 883 884 884 884 885 885 885 885
820 823 826 828 831 833 836 838 840 843 845 847 849 851 853 855 856 857 858 860 861 862 863 864 865 866 868 869 870 871 872 872 873 874 874 875 875 876 876 877 878 878 878 879 878 878 878 878 878 879 879 880 879 878 879 879 880 879 879 879 880 880 881 882 882 882 882 882 882 882 883 883 883 883 884 884 884 883 884 883 884 884 884 884 884
819 822 824 827 829 832 834 837 839 841 844 846 848 850 852 854 855 857 858 859 861 862 862 864 865 866 867 868 869 870 871 872 873 873 874 875 875 876 876 877 878 878 878 879 878 878 878 878 879 879 880 880 880 879 879 879 880 879 879 880 880 881 881 882 882 882 882 882 882 883 883 883 883 883 884 884 884 884 883 883 883 883 883 883 884
818 821 823 826 828 831 833 836 838 840 843 845 847 849 851 853 855 856 857 858 860 861 862 863 864 865 866 868 869 870 871 872 872 873 874 875 875 876 876 877 877 878 878 878 878 878 878 878 879 879 880 880 880 880 880 880 880 879 879 880 880 881 882 882 882 882 882 882 882 883 882 883 883 883 884 884 884 884 883 883 883 883 883 883 883
816 819 822 824 827 829 832 834 837 839 841 843 845 848 850 851 853 855 856 858 859 860 861 862 863 865 866 867 868 869 870 871 872 873 873 874 875 875 876 876 877 877 878 878 878 878 879 879 879 879 880 880 880 879 879 880 880 880 880 880 881 881 882 882 882 882 882 882 882 882 882 883 883 883 883 884 884 884 884 883 883 884 883 883 882
814 817 819 822 825 827 830 832 835 837 839 841 843 845 848 850 851 853 855 856 858 859 861 862 863 864 865 866 867 869 870 870 871 872 873 874 874 875 876 876 877 877 878 878 878 878 878 879 879 879 879 879 879 879 879 880 880 880 880 880 881 881 882 882 882 881 881 882 882 882 882 882 883 883 883 883 884 884 884 884 883 884 883 883 882
810 814 817 820 823 825 828 830 832 835 837 839 841 843 846 848 850 851 853 855 857 858 860 861 862 863 864 865 866 868 869 870 871 871 872 873 873 874 875 876 876 877 877 878 878 878 878 879 879 879 879 879 879 879 879 880 879 879 879 879 880 881 881 881 881 881 880 881 881 882 882 882 882 883 883 883 883 884 884 884 883 883 883 883 883
808 811 814 817 820 823 825 828 830 833 835 837 839 842 844 846 849 850 852 854 855 857 859 860 861 862 863 864 866 867 868 869 870 871 871 872 873 874 874 875 876 876 877 877 878 878 878 878 878 878 878 878 879 879 879 880 879 879 879 879 879 879 881 881 880 880 880 880 881 881 881 881 881 882 883 883 883 883 883 883 883 883 883 883 883
805 808 811 814 817 820 823 825 828 831 833 835 837 840 843 845 848 850 852 853 854 856 858 859 860 861 862 863 865 866 867 868 869 870 871 871 872 873 874 874 875 876 876 877 877 878 878 878 878 878 878 878 879 879 879 879 880 879 879 879 878 878 881 880 877 879 879 879 880 880 880 881 881 882 882 882 882 883 883 883 883 883 883 883 883
801 804 807 810 813 816 820 823 826 829 831 833 836 839 841 844 846 849 851 852 854 855 856 857 858 860 861 862 864 865 866 867 868 869 870 870 871 872 873 874 874 875 876 876 877 877 878 878 878 878 878 878 878 878 878 879 879 879 879 879 880 880 879 876 875 878 878 878 879 879 879 880 880 881 881 881 882 882 882 883 883 882 882 882 882
797 800 803 807 810 814 817 820 823 826 829 831 834 836 839 841 843 846 848 850 852 853 853 855 856 858 859 861 862 864 865 866 867 868 869 870 870 871 872 873 874 874 875 876 876 877 877 877 877 878 878 878 878 877 877 878 879 880 880 879 880 881 878 876 877 879 878 877 877 877 878 879 879 879 880 881 881 881 882 882 882 882 882 882 882
793 797 801 804 807 811 814 817 821 824 827 829 831 834 836 839 841 843 845 847 849 850 851 853 855 856 858 860 861 862 863 865 866 867 868 869 870 870 871 872 873 874 874 875 875 876 876 877 877 878 878 878 878 878 878 878 878 879 880 879 879 879 879 879 879 879 880 879 877 876 876 877 878 878 878 879 879 880 881 881 881 882 882 882 882
790 794 797 800 804 808 811 814 818 821 823 826 828 831 834 836 838 841 843 845 846 848 850 852 854 855 856 858 859 861 862 863 864 865 866 868 869 870 871 871 872 873 873 874 875 875 876 876 877 877 878 878 878 878 878 878 878 879 879 879 879 879 880 879 879 879 880 880 878 876 875 876 876 877 877 877 878 878 879 880 881 881 881 881 881
787 790 793 797 801 805 808 811 814 818 820 823 825 828 831 833 836 839 841 843 845 847 849 850 852 854 855 857 858 860 861 861 863 864 865 866 867 869 870 871 872 872 873 873 873 874 875 876 876 877 877 878 878 878 878 878 878 878 878 879 879 879 879 879 879 879 879 880 879 876 875 875 875 876 876 876 877 877 878 879 880 880 880 880 881
783 787 791 794 798 801 805 808 811 814 817 820 822 825 828 831 834 836 838 840 843 845 847 849 850 852 854 855 857 858 859 860 861 862 863 865 866 867 868 870 871 871 872 872 873 873 874 875 875 876 877 877 877 878 878 878 877 877 878 878 878 878 879 878 878 877 877 879 879 875 873 873 873 874 876 876 876 877 877 878 878 879 879 879 880
780 784 788 791 794 798 801 805 808 811 814 817 820 822 826 828 831 833 835 838 840 843 845 847 848 850 852 853 855 856 857 859 860 861 862 863 864 866 867 868 869 870 871 871 872 872 873 874 874 875 876 876 877 877 877 877 877 877 877 877 877 877 878 878 877 877 877 877 877 875 873 872 873 874 875 876 876 876 876 877 877 877 878 878 878